Regional Weather Roundup
Issued by NWS

Home | Current Version | Previous Version | Graphics & Text | Print | Product List | Glossary On
Versions: 1 2 3 4 5 6 7 8 9 10 11 12 13 14 15 16 17 18 19 20 21 22 23 24 25 26 27 28 29 30 31 32 33 34 35 36 37 38 39 40 41 42 43 44 45 46 47 48 49 50
000
ASUS43 KDMX 250706
RWRIA

WEATHER ROUNDUP FOR IOWA
NATIONAL WEATHER SERVICE DES MOINES IA
200 AM CDT TUE JUL 25 2017

NOTE: "FAIR" INDICATES FEW OR NO CLOUDS BELOW 12,000 FEET WITH NO
SIGNIFICANT WEATHER AND/OR OBSTRUCTIONS TO VISIBILITY.

* - THESE STATIONS ARE NOT NWS STATIONS...THUS NOT UNDER NWS
QUALITY CONTROL.  THEY ALSO DO NOT REPORT WEATHER SUCH
AS PRECIPITATION OR FOG.

IAZ001>003-012>014-020>022-031>034-043>046-250800-
   NORTHWEST IOWA

CITY           SKY/WX    TMP DP  RH WIND       PRES   REMARKS
CARROLL *        N/A     66  66 100 SE10      30.03R
CHEROKEE *       N/A     69  65  85 S8        29.99S
DENISON *        N/A     70  64  83 VRB5      30.02R
ORANGE CITY *    N/A     70  66  88 SE7       29.98F
SHELDON *        N/A     70  63  78 SE10G17   29.97F
SIOUX CITY       N/A     74  67  78 SE12      29.96R
SPENCER          N/A     69  63  81 SE14      30.01R
STORM LAKE *     N/A     68  63  83 SE10      30.02R
$$

IAZ055>058-069>071-079>083-090>094-250800-
   SOUTHWEST IOWA

CITY           SKY/WX    TMP DP  RH WIND       PRES   REMARKS
ATLANTIC *     MOCLDY    70  64  83 VRB6      30.02S
AUDUBON *        N/A     66  63  88 CALM      30.04S
CLARINDA *       N/A     70  66  88 S6        30.05S
COUNCIL BLFS *   N/A     72  68  88 SE10      30.00F
CRESTON *        N/A     68  64  88 SE5       30.07S
HARLAN  *        N/A     70  66  88 S6        30.05R
LAMONI           N/A     69  64  84 SE6       30.07R
RED OAK *        N/A     72  66  83 S6        30.02S
SHENANDOAH *     N/A     72  66  83 SE8       30.02S
$$

IAZ047>049-059>061-072>074-084-250800-
   CENTRAL IOWA

CITY           SKY/WX    TMP DP  RH WIND       PRES   REMARKS
AMES             N/A     67  66  97 SE8       30.07R
ANKENY *         N/A     68  64  88 SE9       30.08R
BOONE *          N/A     66  64  94 SE10      30.06S
CHARITON *       N/A     68  64  88 SE12      30.07S
DES MOINES       N/A     70  65  84 SE12      30.07R
GRINNELL*        N/A     64  62  91 SE8       30.11R
KNOXVILLE *      N/A     68  63  83 SE8       30.07S
MARSHALLTOWN     N/A     66  63  90 SE12      30.09R
NEWTON *         N/A     64  63  94 SE9       30.09R
PELLA *          N/A     66  64  92 SE5       30.10R
$$

IAZ004>006-015-016-023>025-035-036-250800-
   NORTH CENTRAL IOWA

CITY           SKY/WX    TMP DP  RH WIND       PRES   REMARKS
ALGONA *         N/A     66  66 100 SE15G23   30.04F
CLARION *        N/A     66  66 100 SE13G20   30.07S
ESTHERVILLE      N/A     66  63  90 S15G22    30.02S
FORT DODGE *     N/A     68  63  83 SE10      30.06S
MASON CITY       N/A     64  61  90 SE10      30.10R
FOREST CITY *    N/A     64  63  94 SE12      30.07S
WEBSTER CITY *   N/A     66  64  94 SE10      30.05R
IOWA FALLS *     N/A     65  63  91 SE8       30.10R
$$

IAZ007>011-017>019-026>030-037>042-050>054-066-250800-
   NORTHEAST IOWA

CITY           SKY/WX    TMP DP  RH WIND       PRES   REMARKS
CEDAR RAPIDS     N/A     61  61 100 SE6       30.10S
CHARLES CITY *   N/A     63  63 100 SE7       30.11R
DECORAH *        N/A     63  59  88 S6        30.11R
DUBUQUE          N/A     63  59  87 SE8       30.13S
MONTICELLO *     N/A     59  59 100 SE5       30.11F
OELWEIN *        N/A    N/A N/A N/A MISG        N/A
WATERLOO         N/A     63  60  90 SE7       30.09R
$$

IAZ064-065-067-068-078-250800-
   EAST CENTRAL IOWA

CITY           SKY/WX    TMP DP  RH WIND       PRES   REMARKS
DAVENPORT        N/A     62  59  90 E6        30.15R
IOWA CITY        N/A     65  61  87 SE3       30.12S
MT. PLEASANT *   N/A     63  63  99 E5        30.10F
MUSCATINE *      N/A     63  61  94 CALM      30.11F
QUAD CITIES      N/A     63  59  87 E5        30.12R
$$

IAZ062-063-075>077-085>089-095>099-250800-
   SOUTHEAST IOWA

CITY           SKY/WX    TMP DP  RH WIND       PRES   REMARKS
BURLINGTON       N/A     67  64  90 E8        30.10S
FAIRFIELD *      N/A     64  61  88 SE5       30.09F
FORT MADISON *   N/A     66  64  94 E3        30.11S
KEOKUK *         N/A     68  64  88 E10       30.09S
OSKALOOSA *      N/A     64  62  94 SE6       30.09F
CENTERVILLE *    N/A     66  64  94 CALM      30.10F
OTTUMWA          N/A     66  64  93 SE8       30.09S
WASHINGTON *     N/A     61  61 100 E5        30.12R FOG
$$

ABBREVIATIONS USED IN REMARKS
   TC - TEMPERATURES IN CELSIUS
  WCI - WIND CHILL INDEX
   HX - HEAT INDEX
  VSB - VISIBILITY
$$




USA.gov is the U.S. government's official web portal to all federal, state and local government web resources and services.